User: anonymous
Location: Unspecified
(0.0000°N, 0.0000°E)
Time: 05:42:31
(UTC+02:00)
Language:

Cosmos 2219 - Orbit

View from above orbital plane
View from above orbital plane
View from above satellite
View from above satellite

Ground track
Ground track

The orbit data is extracted from the following two-line orbital elements,

1 22219U 92076A   14203.17268983 -.00000215  00000-0 -88942-4 0  5568
2 22219 071.0592 253.8721 0018806 217.0381 202.3559 14.13501324118285
Epoch (UTC): 22 July 2014 04:08:40
Eccentricity: 0.0018806
inclination: 71.0592°
perigee height: 834 km
apogee height: 861 km
right ascension of ascending node: 253.8721°
argument of perigee: 217.0381°
revolutions per day: 14.13501324
mean anomaly at epoch: 202.3559°
orbit number at epoch: 11828

The dashed part of the orbit path shows where the satellite is in the earth's shadow,  

DLR